Theta_e
316 315 314 313 314 313 315 314 313 314 315 315 314 312 309 309 306 304 305 309 311 315 317 315 320 322 323 328 330 329 329 324 324 330 331 333 336 321 314 311 311 311 308 306 306 306 308 309 309 311 314 316 318 318 318 318 316 315 316 314 314 313 313 313 313 316 320 319 317 316 316 315 314 312
315 315 315 314 313 313 314 313 314 314 313 313 314 314 314 312 308 307 305 306 312 311 315 315 314 319 321 324 326 326 326 319 324 326 328 329 333 313 315 310 310 311 309 308 308 308 307 307 308 310 314 315 315 315 315 315 315 316 316 313 314 314 315 315 315 318 319 318 317 315 315 314 313 312
315 314 314 314 314 314 314 313 314 315 313 313 312 313 314 314 313 310 308 304 310 315 313 316 318 318 319 319 320 321 322 322 323 326 328 327 317 314 321 314 312 312 311 310 310 310 310 308 307 309 311 313 314 313 314 317 317 315 315 312 312 315 317 316 316 318 319 318 318 317 315 313 312 313
314 313 312 311 311 312 311 312 313 312 313 313 310 312 312 312 313 312 309 307 307 312 312 313 314 315 317 317 318 320 319 319 317 323 323 325 316 322 325 316 313 312 309 309 309 308 308 308 307 306 307 310 311 312 313 314 314 314 313 312 313 314 316 316 316 319 319 318 318 317 314 313 312 312
312 311 310 310 311 312 311 311 312 311 311 312 311 311 310 310 312 311 309 307 308 312 315 314 314 316 317 314 316 316 318 319 321 318 322 322 322 322 323 324 313 310 309 307 307 307 307 308 308 305 304 307 307 308 309 310 310 312 312 310 310 311 315 316 316 316 319 318 317 315 314 312 311 311
311 311 310 308 310 310 308 310 308 309 310 309 309 309 310 308 310 312 309 307 306 307 312 311 315 314 316 313 315 315 316 317 318 317 319 320 319 318 320 323 327 307 309 306 306 306 306 306 305 305 304 304 305 306 306 307 308 309 309 308 309 311 313 315 315 315 317 318 317 315 313 312 311 311
310 310 310 310 310 311 310 310 310 310 309 310 309 309 310 309 310 310 310 307 305 306 307 311 310 311 313 313 313 314 315 315 314 313 315 315 316 317 318 320 322 308 305 305 305 305 305 305 305 305 305 304 304 304 304 305 305 306 306 307 308 308 309 309 310 312 313 316 316 314 313 311 311 312
309 310 309 310 309 309 308 308 308 308 309 309 309 310 311 311 310 311 311 310 308 307 306 309 308 310 310 311 312 312 313 312 312 313 313 315 315 316 315 316 317 311 305 305 305 305 306 305 305 304 304 305 304 304 304 304 304 304 305 305 305 306 306 307 307 308 310 315 317 316 312 311 312 313
309 309 308 307 308 307 307 308 308 308 308 307 307 307 307 308 309 310 311 310 309 307 306 307 309 310 310 311 312 312 310 311 311 312 312 314 314 316 317 318 316 310 309 311 309 307 306 305 304 304 305 304 303 303 304 304 303 304 305 305 305 305 305 305 305 306 307 308 310 315 314 312 313 315
309 308 307 307 306 306 306 306 307 308 308 307 307 307 306 306 307 308 309 309 309 308 307 307 307 310 308 309 310 311 311 310 309 310 312 312 313 314 315 316 317 318 317 323 325 311 307 306 303 305 305 304 303 303 303 303 304 304 304 305 305 305 304 304 304 304 305 305 306 307 311 312 314 316
307 306 305 306 306 305 306 305 306 306 306 307 307 307 308 307 308 307 307 307 307 307 307 307 307 307 309 309 307 310 311 310 309 308 308 309 312 315 317 317 319 322 323 318 311 315 316 312 312 307 303 304 303 304 303 303 303 303 303 303 304 304 304 304 304 304 304 304 304 305 305 308 313 316
306 305 304 304 304 304 304 305 305 305 304 305 306 307 307 307 307 306 306 306 305 305 305 304 304 306 306 307 309 310 310 308 309 309 309 308 309 311 313 314 314 316 317 318 321 315 314 312 309 304 303 303 303 303 303 303 304 303 303 303 303 303 304 303 303 304 304 304 304 304 303 303 306 313
305 304 304 304 304 304 301 300 299 300 300 301 300 302 303 304 304 305 305 305 304 304 304 303 305 304 304 305 306 306 306 306 307 310 310 308 308 308 309 311 314 314 315 317 318 319 322 322 324 326 326 324 311 311 305 309 305 303 302 301 302 303 303 303 303 304 304 304 303 303 303 302 303 304
304 304 304 305 304 301 300 298 296 294 295 296 299 300 302 302 303 303 303 303 303 303 302 302 303 303 303 304 306 306 307 308 309 308 308 306 307 307 307 308 311 313 314 314 314 316 319 319 321 322 323 325 323 326 320 321 318 308 301 302 302 302 302 303 303 303 303 303 303 303 302 302 301 301
303 304 303 304 303 303 301 301 295 294 294 294 294 295 296 297 300 300 300 301 303 302 302 303 303 302 302 304 306 305 306 307 307 306 307 306 306 305 303 302 308 314 315 313 314 315 319 321 319 320 321 323 325 327 324 312 307 306 302 301 301 302 302 302 302 302 303 303 303 303 302 302 302 301
303 302 302 303 304 304 304 303 303 299 294 293 293 292 293 293 293 294 298 298 299 301 301 301 302 302 302 303 305 304 305 305 305 307 307 306 305 304 303 303 304 310 314 312 311 312 317 320 319 319 321 322 324 325 317 308 304 304 303 302 301 301 301 301 302 302 302 302 302 302 302 301 301 300
302 301 301 301 302 303 303 301 302 303 304 296 293 293 293 293 292 291 290 292 298 299 299 300 300 302 303 303 304 306 305 306 304 304 303 304 304 304 304 304 305 308 312 310 308 308 312 315 315 316 319 321 322 325 310 307 305 302 302 302 301 301 301 301 301 301 301 301 301 301 301 300 299 299
301 301 301 300 301 302 303 303 303 303 303 303 303 303 302 302 299 293 291 291 291 295 298 298 297 300 303 301 303 305 305 303 301 301 301 303 302 303 303 306 307 308 310 306 306 305 308 312 312 312 317 320 322 322 315 305 304 302 301 301 301 301 300 300 300 300 300 300 300 300 300 299 299 298
301 301 301 302 301 302 302 303 301 301 300 300 300 300 300 301 301 302 302 302 301 300 299 299 300 300 301 301 302 303 304 303 303 303 302 302 303 303 304 304 304 305 307 307 305 301 306 310 310 311 313 317 319 322 307 300 301 300 300 300 300 300 300 299 299 299 300 300 300 300 299 298 297 296
300 301 301 301 301 301 301 298 292 294 298 298 298 297 298 299 300 301 298 297 297 300 301 302 302 302 302 297 300 299 298 299 300 299 301 302 301 299 298 298 301 302 306 307 304 303 304 308 307 309 313 316 317 318 322 299 301 300 300 299 299 299 299 299 299 299 299 299 299 299 298 297 295 294
301 301 301 301 300 300 300 296 290 290 291 296 296 296 297 297 298 297 299 296 293 293 292 292 291 291 291 291 292 292 292 295 297 296 295 296 299 297 296 298 299 300 304 306 306 305 303 307 308 309 311 313 313 315 316 315 298 298 299 298 298 298 298 298 298 298 298 298 298 297 296 295 294 293
300 301 299 298 298 299 300 293 289 289 293 295 295 295 295 295 295 296 298 298 298 294 292 292 291 291 292 291 291 292 292 292 294 295 293 297 298 296 296 295 298 301 303 304 307 304 303 307 309 308 311 312 313 314 315 316 308 299 298 296 296 297 297 297 297 298 297 297 297 296 295 294 293 295
300 300 299 297 297 298 296 291 290 289 292 294 294 294 293 292 293 294 297 296 295 296 296 297 297 297 295 297 297 297 293 292 294 296 296 296 295 294 295 296 297 297 300 304 309 303 303 305 307 308 307 307 311 313 313 313 314 313 311 309 307 296 296 296 296 297 297 297 296 295 294 293 294 296
298 299 300 298 291 290 290 289 288 288 288 293 294 293 292 291 291 294 295 295 295 294 294 295 295 295 296 296 297 297 297 297 297 296 297 296 295 294 294 295 296 296 299 305 307 304 304 306 305 309 308 305 302 310 312 311 309 307 307 306 305 296 295 295 295 295 296 296 295 294 293 293 294 296
297 298 299 300 294 289 289 288 288 288 288 289 292 292 291 291 292 291 292 292 290 292 292 292 292 293 293 294 295 295 296 296 297 297 297 297 297 295 295 294 295 296 299 303 300 306 303 305 305 307 307 308 308 309 310 310 307 305 305 304 301 301 300 300 298 298 294 294 293 293 292 293 294 296
297 298 298 299 294 288 289 288 288 288 288 288 291 291 288 288 287 289 291 290 290 290 290 290 290 291 291 292 293 294 294 295 296 296 297 297 297 297 297 296 295 295 298 303 297 303 302 302 305 305 306 306 306 307 306 307 307 304 304 304 303 301 300 298 297 296 296 295 294 293 293 293 293 293
296 298 298 297 291 287 288 288 288 288 287 288 290 287 287 287 287 288 289 289 289 289 289 289 289 290 290 291 291 292 293 294 295 295 296 296 297 297 297 298 298 298 300 302 304 304 302 300 302 302 303 306 304 305 305 304 302 302 302 302 301 301 300 299 296 295 295 294 293 292 292 292 292 292
296 296 297 295 288 288 288 288 288 288 288 289 288 287 287 287 287 289 288 288 288 288 288 288 289 289 290 291 291 292 293 293 295 295 295 295 296 296 297 297 297 298 299 300 301 301 302 300 300 302 303 303 304 303 303 307 304 300 300 301 300 299 298 298 296 295 294 294 293 293 294 294 294 293
295 291 289 288 288 288 288 287 287 288 288 287 287 287 287 288 290 289 289 289 289 288 288 288 289 290 290 291 292 293 294 294 295 294 294 295 295 296 296 296 297 298 298 299 299 300 301 300 300 302 302 303 303 305 305 304 305 302 301 297 295 296 296 297 296 295 294 294 293 292 292 292 292 293
289 288 288 287 287 288 289 291 291 291 292 289 288 287 288 291 290 290 289 289 289 288 288 289 289 290 291 292 293 294 294 293 292 292 292 292 292 293 293 293 294 296 297 298 299 299 300 300 300 300 299 301 302 303 305 306 306 304 299 299 298 296 296 296 295 295 294 293 293 293 294 293 292 292
294 293 291 291 289 289 287 287 287 288 288 289 290 291 291 291 291 291 291 290 290 289 289 289 290 291 292 293 292 292 292 291 292 292 291 291 290 291 292 292 292 293 295 298 298 299 300 300 300 300 297 298 300 301 304 305 304 301 299 300 295 292 293 294 294 294 294 293 294 294 294 293 293 292
292 292 290 290 292 292 292 291 292 292 291 290 290 291 292 291 291 291 290 290 291 291 291 291 291 290 291 290 290 291 291 291 291 292 291 290 290 290 290 289 289 291 293 295 297 299 296 300 299 299 299 299 298 301 303 304 301 298 297 297 297 297 294 293 293 293 294 293 293 292 292 292 291 292
291 291 291 290 290 290 289 288 288 289 289 289 290 291 291 291 291 291 290 290 291 291 290 289 289 289 290 289 290 290 289 290 290 291 290 290 289 290 290 289 289 290 290 292 295 297 298 299 300 300 300 301 301 302 301 299 299 297 295 295 295 293 294 294 293 293 294 292 291 291 290 291 292 292
288 289 289 289 289 288 288 288 287 287 288 288 288 288 288 289 289 289 289 290 290 290 289 289 289 288 289 288 289 289 289 289 290 290 289 289 290 289 289 288 289 290 290 291 293 295 296 298 299 298 299 300 302 303 303 300 297 296 296 295 295 293 293 294 294 294 293 292 290 288 289 290 292 294
288 288 288 288 288 288 288 287 287 287 287 287 287 287 288 289 288 288 288 289 289 288 288 288 288 288 288 288 288 288 288 288 289 289 289 289 289 289 288 288 288 289 289 290 291 293 295 295 296 297 297 297 297 300 297 301 299 295 295 295 295 293 292 293 293 293 292 291 291 288 288 289 290 293
288 288 288 287 287 287 287 287 287 287 287 287 287 287 287 287 288 288 287 288 289 288 288 287 287 288 288 288 288 288 287 287 287 288 287 288 287 287 288 289 288 289 289 289 290 292 294 296 296 294 292 292 292 291 294 295 297 297 293 292 294 293 293 293 293 292 292 291 291 289 287 287 289 292
288 288 287 287 287 287 286 287 287 287 287 287 287 287 287 286 287 288 288 288 288 287 287 287 287 287 287 287 287 287 287 287 286 287 287 288 288 288 287 287 287 288 289 290 291 292 294 294 295 294 292 290 290 289 292 292 293 296 298 292 292 293 292 291 290 289 292 292 290 289 288 288 289 291
288 288 287 287 287 287 287 287 287 287 287 287 287 286 286 287 287 288 288 288 287 287 287 286 286 286 287 287 287 287 287 287 287 287 287 287 287 287 287 287 287 288 289 290 291 292 294 294 294 293 293 289 290 290 289 289 292 294 295 295 291 291 291 290 289 289 289 292 291 291 291 289 289 290
289 288 287 287 287 288 287 287 287 286 286 286 286 286 286 286 287 287 287 286 286 286 286 286 286 287 287 287 287 287 287 287 287 287 287 287 287 287 287 287 287 289 289 288 291 292 293 293 293 293 294 291 290 292 292 290 291 294 293 293 293 291 291 290 290 290 290 290 290 291 289 290 290 287
288 288 288 288 287 288 288 287 287 287 286 286 286 286 286 286 286 286 286 286 286 286 286 286 286 286 286 287 287 287 287 287 287 287 287 287 287 287 287 288 288 288 288 288 288 290 292 293 293 294 295 295 295 295 295 294 293 292 291 291 292 292 291 291 290 290 289 289 288 286 286 287 286 287
288 287 288 288 287 287 287 287 287 287 286 286 286 286 286 286 286 286 286 286 286 285 285 286 286 286 287 287 287 287 286 287 287 287 288 288 287 287 287 287 288 288 288 288 289 289 291 294 295 292 295 291 290 291 291 288 286 287 288 289 290 290 291 292 293 291 289 289 288 286 286 285 285 285
288 287 287 288 287 287 287 287 287 286 286 286 286 286 285 286 286 286 286 285 286 285 286 286 287 287 287 287 287 287 287 287 287 287 287 288 288 288 287 288 288 288 288 288 289 290 294 297 293 292 291 290 291 290 288 287 286 286 287 288 289 289 289 289 290 290 292 289 287 286 285 285 286 285
288 287 287 287 287 287 287 287 286 286 286 286 286 286 285 285 286 286 286 285 286 286 286 286 287 287 288 288 288 288 287 287 287 288 288 288 288 288 288 288 288 289 289 290 291 291 291 291 293 291 291 291 291 291 287 286 286 286 286 287 287 288 288 289 289 288 289 289 289 289 289 287 285 283
288 287 287 287 286 287 287 287 286 286 286 286 285 285 285 285 285 285 285 286 286 286 286 286 287 287 288 289 289 289 288 288 288 288 288 288 288 288 288 289 289 289 290 290 289 289 290 291 291 291 290 290 290 288 286 286 285 286 286 286 286 286 286 288 288 288 287 286 287 288 288 288 288 288
288 287 287 286 287 287 287 286 286 286 286 286 286 285 285 285 285 285 286 286 286 286 286 286 287 288 289 289 289 288 289 289 289 289 289 289 289 289 289 289 289 289 289 289 288 288 289 290 290 291 291 290 289 288 287 286 285 285 285 285 285 286 286 287 286 285 285 285 286 287 287 287 287 287
Wind_Speed
2 3 1 1 1 1 1 1 2 2 3 3 2 3 4 4 6 6 6 5 4 3 2 4 3 5 5 3 4 5 7 3 5 7 7 6 7 4 10 10 11 11 12 13 13 14 14 15 15 14 15 15 15 14 16 19 20 21 20 19 19 19 18 17 19 19 19 20 19 17 16 15 13 13
2 1 0 1 1 1 2 1 2 2 3 3 3 3 3 3 5 5 7 7 6 6 6 6 6 4 5 4 3 5 7 7 5 7 8 8 4 6 5 8 10 11 12 13 13 12 13 14 14 16 16 15 15 15 13 17 21 22 22 21 21 20 20 18 19 20 20 19 18 17 16 15 14 13
1 1 1 1 0 0 1 2 2 2 3 3 4 3 4 4 4 6 6 8 5 3 5 5 6 7 8 7 8 7 8 3 4 7 8 10 5 8 9 10 12 13 13 13 13 12 13 14 15 15 15 15 16 15 15 17 18 19 21 22 23 23 23 21 20 22 22 21 19 20 17 16 16 13
2 1 2 1 2 1 3 3 2 3 3 3 4 4 4 4 5 6 7 8 9 6 7 7 8 10 9 8 8 9 7 7 6 9 9 9 9 9 10 13 16 14 14 14 13 13 13 14 14 14 15 16 15 15 16 17 16 19 21 21 23 23 23 23 21 22 22 22 20 20 19 18 16 13
2 1 1 2 2 2 4 3 4 4 4 4 5 5 5 5 5 6 7 9 9 7 6 7 7 7 8 9 9 9 8 8 8 9 9 10 9 9 9 9 12 15 15 14 13 12 13 13 14 14 14 15 14 13 14 15 16 17 20 21 22 23 24 24 22 22 24 23 22 20 21 21 19 17
2 2 2 2 1 2 4 4 6 4 4 5 5 5 5 6 6 5 7 8 9 10 7 8 7 8 7 9 8 8 8 9 9 10 9 8 10 9 9 8 7 13 12 11 11 11 12 13 14 14 14 14 13 13 13 14 15 16 19 20 22 24 24 24 25 24 24 23 22 21 22 22 22 19
3 2 2 2 1 2 3 3 5 4 5 5 6 6 6 7 7 7 7 8 9 10 9 8 8 7 7 7 8 8 8 9 9 11 10 10 9 9 9 8 9 10 11 11 10 11 11 13 14 14 15 14 13 13 14 14 15 17 18 20 22 23 24 25 25 26 24 24 23 22 23 23 23 20
3 2 2 2 2 2 3 4 4 4 4 5 5 6 6 7 7 7 7 9 9 9 10 8 8 7 8 8 9 8 8 8 9 9 10 9 10 10 9 10 11 8 12 12 11 12 12 12 13 14 14 13 14 14 14 15 16 18 19 20 21 23 24 25 26 24 25 25 25 23 23 24 23 24
3 3 3 3 3 3 4 4 4 4 5 6 6 7 7 7 7 6 7 8 9 10 10 9 8 8 9 9 9 8 9 8 8 9 9 8 9 10 10 10 9 11 12 12 12 13 13 13 14 14 14 14 14 14 15 15 16 17 19 20 21 22 24 24 24 24 25 25 25 24 24 24 23 27
3 3 3 3 3 3 4 4 4 5 6 6 7 8 7 8 8 8 9 9 10 11 11 10 10 8 8 9 8 9 9 9 9 8 8 9 9 9 9 9 8 8 7 6 9 11 11 16 16 14 14 14 14 15 15 16 16 17 18 20 20 21 22 23 23 24 25 27 26 24 24 26 25 27
3 3 4 3 4 4 4 5 5 5 6 6 8 8 8 8 8 8 8 9 10 10 11 11 10 10 9 9 9 8 7 8 9 9 9 8 6 6 6 7 6 6 7 9 10 10 11 5 6 14 16 15 15 15 15 15 16 17 19 19 20 20 21 22 23 24 26 22 21 23 23 25 25 27
3 3 4 4 4 5 5 5 5 6 7 7 8 7 7 8 8 9 9 9 9 10 11 10 10 9 9 8 8 8 8 8 8 7 7 8 7 6 7 8 9 9 10 10 8 11 13 12 12 11 14 16 15 15 13 15 15 17 18 19 19 20 20 22 23 25 24 24 27 24 22 24 26 26
4 4 4 5 6 4 4 5 6 8 7 7 9 9 9 9 10 10 9 10 9 10 10 11 10 10 9 9 8 8 8 8 7 6 6 9 9 9 9 8 9 9 9 9 9 9 9 10 10 9 9 10 16 14 15 12 16 17 16 17 18 20 21 22 23 24 24 23 20 22 25 27 27 25
4 5 5 6 6 6 8 10 11 11 12 12 11 10 9 9 10 10 10 10 10 10 11 11 11 11 10 9 9 9 8 8 8 9 9 9 8 8 9 9 9 10 10 10 10 10 9 9 10 10 10 7 10 7 9 8 10 13 18 18 18 19 20 21 22 23 23 23 25 26 24 24 24 25
4 5 6 6 6 8 11 13 16 14 13 13 14 15 14 13 12 11 11 11 11 11 12 11 11 12 12 11 10 10 10 9 9 9 8 9 9 9 8 9 6 6 7 8 9 9 9 8 10 10 10 9 9 8 10 9 13 13 15 17 18 18 19 20 21 22 23 24 25 26 26 27 27 26
4 5 6 6 6 7 8 8 8 11 15 16 15 15 15 15 16 15 14 12 12 12 12 13 13 13 13 12 11 10 9 9 9 9 9 9 9 10 10 9 8 5 6 8 9 10 8 8 10 10 10 9 8 7 4 5 10 12 11 13 15 17 18 18 20 21 22 23 24 25 26 23 21 23
5 6 6 7 6 7 5 7 10 10 9 12 17 17 16 17 17 16 18 18 16 14 15 14 15 13 12 13 11 10 10 10 11 11 11 10 10 10 11 10 9 8 7 9 10 12 10 9 10 11 10 9 9 7 9 11 10 10 11 12 13 15 17 18 19 19 20 22 23 24 22 22 24 23
5 6 7 7 7 7 8 8 9 9 9 9 8 9 10 11 15 20 22 20 20 19 17 16 17 15 13 14 12 12 12 13 13 12 12 11 12 12 13 12 12 10 8 9 9 12 11 9 10 11 10 9 10 11 9 13 11 10 10 11 12 13 15 16 17 19 20 21 22 22 22 21 20 16
6 7 7 8 9 8 8 8 6 8 9 9 9 10 11 11 12 11 11 14 15 14 15 16 17 16 15 16 16 15 15 16 15 15 16 16 15 15 16 16 15 14 12 12 11 13 10 8 10 11 10 10 10 9 8 11 10 8 7 10 11 12 13 14 16 17 19 19 20 20 19 18 18 18
6 7 7 7 8 9 9 10 2 4 8 10 10 11 12 12 12 11 11 12 12 13 13 12 13 13 12 11 10 10 10 10 10 11 12 13 14 15 15 15 12 13 10 12 13 12 12 10 11 11 9 9 10 9 5 8 9 6 1 7 9 10 11 12 13 15 16 19 17 17 17 17 18 17
7 7 7 7 7 9 10 5 3 3 4 10 11 12 13 12 12 12 11 13 14 13 13 15 16 17 18 19 18 17 16 12 10 11 12 13 11 14 16 15 14 13 10 11 12 12 13 10 10 10 9 10 10 9 8 6 8 8 3 6 8 9 9 10 11 13 14 12 16 18 17 18 17 19
6 7 5 8 10 10 10 1 5 3 4 10 12 14 15 15 15 13 11 11 11 12 13 15 17 18 18 18 18 19 18 18 14 13 17 17 13 17 15 16 13 12 11 11 11 13 13 10 10 11 9 9 10 9 9 4 7 10 7 6 6 6 7 9 10 11 13 15 15 16 18 18 19 12
7 7 8 11 10 10 10 9 9 7 8 11 13 14 15 16 16 14 15 15 15 14 15 14 14 13 15 16 16 18 19 20 19 18 17 15 17 18 18 16 14 14 13 11 11 13 12 11 11 10 9 10 9 9 9 5 3 4 3 3 4 3 5 6 9 12 13 15 17 18 19 20 17 9
8 9 9 8 15 16 12 9 7 8 8 11 14 14 14 15 16 14 14 14 13 15 15 15 15 15 15 14 14 15 14 14 17 18 18 18 19 20 17 16 15 15 11 8 10 13 12 12 11 11 12 10 7 8 9 6 2 2 4 3 2 4 6 8 7 10 13 14 17 19 21 21 17 11
9 9 8 8 1 8 7 6 6 7 8 9 13 15 15 16 15 14 15 16 16 16 16 16 16 15 15 15 15 15 15 15 15 15 17 17 18 18 18 16 17 17 14 12 11 10 11 11 12 11 12 12 11 8 7 6 4 4 4 3 3 5 6 7 7 7 9 14 17 19 19 18 16 13
9 9 9 9 5 9 6 5 5 8 10 11 13 17 18 18 17 17 17 17 16 15 15 15 15 15 14 14 14 14 14 14 15 15 15 16 17 18 17 17 16 16 13 12 12 13 12 11 11 11 11 12 12 11 8 7 6 4 3 3 3 5 7 8 8 9 9 7 8 10 13 15 13 13
10 9 9 9 6 8 10 12 13 15 17 17 17 19 18 18 18 17 16 16 15 15 14 14 15 15 14 14 14 14 14 14 14 14 14 16 16 16 16 17 17 17 15 14 14 14 14 13 12 12 12 11 12 10 9 9 6 5 4 4 5 6 6 8 8 10 10 10 7 13 11 9 12 13
9 10 9 10 17 18 18 18 18 18 18 17 19 19 20 20 18 15 15 14 14 14 14 15 16 15 14 14 15 14 13 13 14 14 14 14 15 15 14 16 17 18 17 17 16 16 14 14 13 12 13 12 12 12 12 10 6 8 7 5 6 6 7 8 9 10 10 10 10 11 10 8 6 8
9 11 14 16 17 16 16 18 19 18 19 21 21 21 20 18 13 14 13 13 13 14 15 15 15 15 15 14 14 14 13 13 13 13 13 14 14 14 15 15 14 14 12 13 16 15 16 14 14 13 12 12 13 11 11 9 9 8 9 9 6 6 7 8 9 10 11 11 11 11 11 10 10 9
14 15 16 17 17 17 15 13 12 12 13 13 14 16 16 13 13 12 12 13 14 14 14 14 14 14 13 13 13 14 14 14 14 13 13 13 12 12 12 12 13 14 14 14 15 15 15 15 14 13 13 12 12 12 10 9 7 9 10 8 8 8 6 9 9 10 11 12 12 11 9 8 9 9
9 8 9 12 14 16 18 19 18 18 16 14 13 11 11 11 11 12 12 13 13 13 13 14 14 13 13 13 13 13 13 14 13 13 13 12 12 11 11 12 12 12 13 15 15 15 15 15 14 13 13 12 12 11 11 9 8 9 8 9 11 8 9 10 10 10 10 11 12 12 9 8 8 7
10 11 12 12 10 9 9 10 9 9 9 10 11 11 11 11 11 13 14 14 14 15 15 15 14 14 13 13 13 12 13 13 13 13 13 13 12 11 10 9 10 11 11 12 13 15 14 14 13 12 13 13 12 9 8 8 2 7 8 9 8 7 10 11 11 11 11 12 12 11 11 10 10 9
11 10 10 8 9 9 9 9 9 10 10 10 11 12 12 11 11 11 11 12 13 13 13 14 13 14 14 14 13 13 13 13 13 12 12 11 11 10 10 10 10 10 11 11 11 12 13 14 14 14 12 11 12 9 7 8 6 8 9 9 8 9 10 10 10 12 13 12 12 12 11 9 9 9
9 8 9 8 8 9 9 10 10 10 10 11 11 10 12 11 12 12 12 12 13 12 12 12 12 13 13 13 13 13 13 13 13 12 10 9 9 9 10 10 10 10 9 11 11 11 11 12 13 13 12 10 8 9 8 9 6 8 8 9 9 10 10 11 11 14 14 13 14 13 12 10 9 9
7 8 8 9 9 9 9 9 10 10 11 11 11 11 11 10 11 11 12 12 11 12 12 12 12 12 13 13 12 11 11 11 11 10 9 10 10 9 10 10 11 11 12 11 11 10 9 9 9 9 10 11 11 7 2 3 7 8 8 8 9 10 10 10 11 13 13 11 11 10 10 11 10 8
8 8 8 9 9 9 9 10 10 10 11 11 11 11 11 11 11 11 12 12 12 12 12 12 12 12 12 12 12 10 10 9 10 8 10 9 9 10 11 10 12 12 13 13 11 10 7 7 7 10 10 10 11 12 9 4 2 10 9 8 9 10 10 11 9 11 11 10 9 10 11 10 9 9
8 7 8 8 9 9 10 10 10 11 11 11 11 11 12 12 11 11 12 12 13 13 12 12 12 12 12 12 12 11 11 11 12 11 11 11 11 10 12 13 12 12 11 11 10 8 8 8 8 9 9 10 9 11 7 2 0 2 9 10 9 9 10 9 9 8 7 9 9 8 9 10 9 9
8 8 8 8 9 10 10 10 10 11 11 11 11 11 11 11 11 13 13 13 13 12 11 12 11 11 11 11 12 13 12 11 10 10 11 10 11 13 13 12 11 10 11 10 9 9 9 9 9 8 9 9 9 9 5 2 4 3 4 10 11 10 8 10 10 10 9 8 10 9 9 9 9 8
9 8 9 9 9 10 10 11 11 11 12 11 11 11 12 12 12 12 12 12 11 11 11 11 11 11 11 11 11 11 11 11 11 11 10 10 9 10 10 11 10 9 8 10 9 9 9 10 10 9 9 8 8 6 5 8 6 7 3 4 11 12 11 10 11 11 12 12 9 9 8 8 12 15
8 9 10 10 10 11 11 11 11 11 12 12 12 12 13 13 12 12 12 12 12 12 12 12 11 11 11 10 10 10 10 11 12 10 9 9 8 8 8 9 9 9 9 9 9 9 10 11 10 9 8 7 4 1 4 6 7 5 5 5 8 12 12 10 11 14 12 10 10 12 12 11 10 8
9 9 9 9 9 10 11 11 11 12 12 12 13 13 13 13 13 12 12 12 12 13 14 13 11 11 11 11 9 9 10 10 9 9 10 10 8 8 9 8 8 8 8 8 8 9 10 10 9 10 6 3 6 8 7 7 7 7 6 5 9 7 7 8 11 11 12 13 10 12 14 12 11 9
9 9 10 10 10 10 11 12 12 12 12 12 13 13 12 12 12 14 14 13 12 10 9 10 10 10 9 9 9 9 10 10 9 9 7 8 9 8 8 8 9 8 9 9 8 7 5 4 6 7 7 8 8 9 7 8 11 9 8 8 7 12 18 18 15 12 11 13 13 12 12 11 8 8
10 9 10 10 10 10 11 12 12 12 12 12 12 12 12 13 12 12 11 11 11 10 10 11 10 10 10 9 8 8 8 8 8 8 8 7 7 7 7 7 8 7 7 6 3 2 3 4 7 7 8 7 6 5 8 10 11 11 10 9 10 9 11 18 19 18 16 15 12 8 6 8 11 11
10 10 10 10 10 11 11 12 12 11 12 12 12 12 12 12 12 12 12 12 11 11 11 10 10 9 9 8 7 6 6 6 6 6 6 6 7 7 7 6 6 6 5 5 3 3 4 5 6 8 8 6 6 8 11 11 10 10 11 11 9 10 11 11 12 16 15 16 16 16 17 14 12 13
9 10 10 10 11 11 11 11 12 12 12 12 12 12 12 12 12 13 12 12 11 11 11 10 9 8 8 7 5 5 5 6 6 5 5 5 5 6 5 5 6 5 5 6 6 6 6 6 5 5 6 5 6 10 10 11 13 11 13 15 12 10 8 7 9 10 9 7 10 16 16 17 16 17
Wind_Direction
141 107 92 32 101 56 336 345 343 338 306 301 284 258 273 296 292 296 295 292 300 283 323 309 323 337 327 329 313 300 292 48 13 312 288 296 290 168 208 210 224 232 238 238 233 233 231 235 237 236 235 232 230 224 212 200 198 200 201 201 201 202 207 201 201 202 208 213 210 208 205 203 204 200
121 118 65 345 145 65 309 17 317 314 316 296 298 290 265 245 268 285 289 290 299 292 287 262 269 271 286 315 284 290 284 94 336 300 296 295 295 49 254 219 229 233 240 245 244 238 238 238 235 234 232 230 231 228 221 213 207 203 198 196 199 200 203 203 199 200 204 211 204 203 202 200 200 199
153 137 191 242 239 251 267 280 253 270 278 291 282 279 286 278 267 276 277 282 279 286 292 306 307 306 305 300 299 291 286 299 5 292 287 275 11 329 292 239 217 223 229 236 238 241 239 238 238 240 239 236 230 227 223 219 216 207 201 198 196 197 200 202 201 200 203 208 205 197 198 198 198 192
171 176 205 242 317 334 292 264 251 271 260 272 286 284 282 273 266 269 269 269 277 282 290 294 293 288 285 288 287 285 287 282 309 290 281 283 301 275 267 228 216 214 219 219 224 228 235 239 241 239 239 239 237 231 225 223 215 210 207 201 200 198 200 201 202 200 201 205 206 197 193 194 194 189
189 190 257 238 219 266 283 288 284 271 278 266 261 268 270 270 266 267 275 278 283 282 280 282 285 294 298 287 282 285 287 287 282 279 278 279 278 275 269 267 201 208 210 213 214 221 229 235 238 239 240 242 240 233 230 227 221 215 210 205 202 200 200 200 200 201 201 202 204 198 192 191 190 191
188 186 247 297 297 286 290 292 285 282 266 265 263 252 250 265 272 261 273 278 283 288 291 286 289 291 288 284 281 281 287 286 286 283 283 278 274 267 270 265 252 185 204 204 213 222 227 234 240 237 235 239 237 234 231 227 223 220 214 209 206 205 202 200 200 201 203 202 201 197 191 189 188 186
158 215 219 255 268 257 270 276 274 280 270 271 274 274 272 271 269 271 267 277 280 285 286 289 285 279 279 278 287 284 281 284 289 287 282 279 272 272 267 263 268 167 180 185 204 217 221 232 238 241 241 238 234 230 228 226 224 221 218 213 209 208 204 204 202 202 201 201 201 197 192 189 189 183
201 228 253 250 264 275 279 282 290 279 279 275 280 281 272 261 257 259 262 257 269 277 281 281 282 288 291 285 280 279 274 273 271 277 287 285 281 275 265 261 262 163 160 175 192 204 215 227 235 240 244 240 236 232 228 225 222 222 219 216 214 211 208 208 206 202 201 202 202 197 193 191 189 186
246 243 259 280 287 282 281 277 273 290 294 289 284 283 283 278 275 264 256 263 266 275 277 279 277 279 274 275 279 280 281 279 276 278 274 281 289 288 286 283 273 274 236 222 204 197 206 217 225 232 236 236 234 231 229 224 222 222 221 218 215 213 212 211 207 203 203 203 202 198 194 192 188 191
220 251 271 278 279 283 283 284 289 287 285 286 281 280 284 289 291 286 281 277 272 272 272 274 278 269 273 278 272 277 278 280 282 281 283 282 276 275 274 269 271 265 266 236 209 202 206 213 217 217 224 230 230 231 228 225 222 220 220 220 218 216 215 213 209 207 205 204 200 196 194 192 191 192
226 249 259 263 265 267 270 279 280 285 285 276 277 275 274 272 271 272 272 272 275 275 277 277 275 278 270 262 272 269 271 277 279 282 284 279 274 274 279 282 280 265 260 252 249 262 275 268 198 203 215 219 226 229 228 226 224 221 220 219 219 218 216 214 212 211 212 207 204 200 192 191 189 193
226 238 251 253 262 264 266 277 287 287 279 283 278 275 272 273 271 272 271 268 267 268 270 272 278 276 281 277 269 271 266 265 264 260 273 286 295 295 296 290 285 282 280 279 263 213 216 233 237 217 208 211 217 221 226 228 228 223 223 220 219 217 216 214 213 214 212 205 203 197 193 192 193 193
228 246 250 258 258 276 329 332 297 285 294 286 276 275 276 272 271 270 269 270 269 267 268 270 269 270 270 273 278 276 274 272 285 303 302 289 287 285 281 276 275 279 277 274 267 265 255 245 236 219 213 206 205 213 216 222 216 224 223 222 219 217 215 215 214 215 213 210 202 202 200 197 193 193
243 251 264 258 248 247 244 242 240 242 249 248 256 270 273 273 271 269 270 270 270 271 272 270 272 271 268 270 272 276 278 284 283 279 274 273 278 281 278 276 268 260 261 264 262 260 251 248 248 248 242 228 172 217 200 213 223 208 213 218 220 219 217 214 213 213 212 208 205 206 202 198 197 197
262 264 267 279 253 219 222 226 226 239 237 233 239 245 253 267 273 277 273 268 268 272 273 273 269 266 267 266 268 270 276 276 276 276 278 278 277 275 280 282 286 283 278 272 276 271 268 264 260 251 246 233 227 224 242 216 203 217 201 211 217 220 220 218 215 212 210 209 208 207 204 202 198 196
268 279 283 280 279 274 277 291 271 231 221 228 231 232 239 241 245 250 257 265 267 266 267 266 264 266 265 268 266 269 269 271 271 270 272 275 278 275 271 271 273 284 314 301 287 282 282 276 266 262 252 248 245 239 237 169 197 207 210 209 216 220 222 222 219 215 211 210 210 210 208 204 197 196
283 288 288 285 278 279 258 251 254 265 262 218 214 228 230 233 235 238 238 245 255 267 267 268 268 266 273 271 266 267 276 283 284 284 274 271 273 274 272 268 269 264 276 283 274 271 272 279 275 266 254 249 248 220 187 206 192 202 216 220 220 222 222 220 218 216 214 211 210 210 206 200 200 196
275 278 281 284 282 280 275 274 271 277 275 288 273 242 242 249 230 220 228 232 233 235 249 257 262 266 271 272 274 276 276 273 272 274 274 275 272 269 270 275 274 273 270 265 276 273 265 261 265 263 266 252 245 247 204 182 194 194 210 225 228 226 225 222 217 214 213 211 210 208 205 202 203 195
261 268 266 271 275 278 276 272 297 288 292 289 281 272 272 268 273 273 253 232 228 230 231 244 253 261 262 265 269 269 267 269 273 273 274 272 273 274 278 277 273 270 262 260 255 260 262 253 256 257 258 259 247 244 129 145 155 190 218 238 237 230 228 225 219 216 213 210 207 203 197 186 179 176
261 261 264 270 276 278 276 277 221 265 287 286 283 280 275 273 272 268 260 267 291 290 283 277 268 265 277 300 297 306 310 309 305 311 302 276 265 266 265 263 263 257 249 238 241 252 258 249 254 258 254 257 258 249 178 138 155 141 240 271 258 242 234 228 222 216 211 209 199 191 182 175 168 156
257 256 258 266 284 286 281 306 78 164 248 279 282 282 281 279 277 271 272 260 247 248 268 277 280 280 277 276 278 279 281 282 291 291 281 266 270 262 261 262 261 258 251 242 234 249 256 248 249 254 247 248 254 251 237 135 102 82 33 282 257 244 233 228 219 213 209 183 177 178 167 161 154 145
266 265 238 250 269 272 270 356 84 95 280 283 285 286 286 284 279 276 275 272 264 239 228 241 254 265 274 276 274 273 273 272 267 261 256 255 257 258 258 262 262 264 254 242 238 249 249 252 247 253 250 246 236 236 247 214 124 131 185 200 252 243 220 210 201 193 183 175 169 161 158 151 143 130
279 278 260 210 223 253 266 265 268 280 277 280 285 286 285 281 277 277 279 278 279 276 274 269 260 247 236 237 245 251 240 240 247 253 256 254 249 254 257 259 264 263 253 246 239 246 248 245 243 246 247 241 235 226 225 146 235 266 272 225 191 155 192 176 176 176 170 162 161 154 147 146 143 133
288 283 282 250 199 218 234 256 256 241 237 268 284 284 280 277 276 279 277 277 282 280 276 273 271 272 275 275 267 263 256 238 227 238 246 244 242 248 252 251 252 254 260 249 227 241 251 252 251 240 241 247 242 215 215 170 150 231 244 208 204 113 113 120 144 154 157 154 148 147 150 152 150 145
288 286 281 287 297 138 168 191 216 234 239 249 275 278 274 271 281 298 285 282 288 280 275 272 271 271 269 265 261 259 256 252 248 242 239 239 240 243 246 247 248 251 254 258 279 263 260 252 252 253 246 244 245 237 215 193 147 197 216 192 146 133 129 128 131 134 128 136 144 148 150 150 148 148
282 285 288 290 348 40 26 3 308 285 276 268 274 274 274 279 283 278 274 277 277 273 269 268 266 263 259 257 256 255 254 254 251 249 247 243 240 241 244 247 251 253 254 255 261 254 256 251 254 256 254 249 243 241 222 205 185 162 197 184 149 139 135 129 125 128 133 131 135 145 149 147 139 135
287 284 292 286 29 5 325 304 295 291 286 281 275 273 270 267 266 266 269 267 267 265 263 260 259 258 255 254 255 254 255 253 252 252 251 251 251 250 249 248 251 255 259 265 258 249 246 250 255 261 261 261 253 236 235 225 173 158 172 164 144 139 140 136 131 135 133 133 122 129 126 117 121 126
286 286 290 323 336 315 305 293 284 279 274 278 279 277 274 271 270 269 269 264 260 259 257 256 255 253 252 253 253 254 254 254 253 251 250 250 249 250 250 249 248 252 256 257 259 256 251 248 245 252 262 265 261 245 232 228 158 155 176 153 142 139 140 139 138 137 137 132 137 146 146 137 131 122
293 302 303 289 281 281 280 278 275 271 264 254 254 257 259 262 268 267 262 258 254 253 252 252 253 253 253 252 254 255 253 252 251 251 251 249 250 252 253 254 257 256 250 248 252 256 255 252 246 242 250 255 259 261 259 240 201 184 172 152 147 150 143 146 145 145 146 147 151 157 160 152 147 149
267 261 260 265 263 263 265 273 287 296 295 293 288 281 272 272 270 263 261 257 255 254 255 255 255 256 258 256 253 254 254 253 251 250 248 247 246 245 247 249 247 247 248 247 243 246 249 250 249 245 245 251 257 264 271 264 225 184 161 167 143 131 148 151 151 149 148 152 156 157 155 148 147 156
254 273 295 304 300 284 275 267 262 262 266 267 265 259 253 256 262 258 254 254 256 257 256 257 257 259 260 261 261 257 253 249 247 244 245 244 244 243 246 249 250 246 241 239 238 237 240 240 245 245 241 246 250 252 262 266 271 163 169 161 152 158 164 155 153 153 152 152 155 155 145 134 139 159
312 300 290 280 275 290 290 289 299 297 295 292 291 288 286 281 277 274 269 265 265 264 263 264 263 260 259 257 255 255 251 249 246 243 241 240 242 239 242 245 248 249 246 240 236 232 231 236 236 238 238 239 241 247 246 251 196 150 164 164 166 139 149 156 153 155 153 151 154 157 160 156 152 156
299 296 298 300 300 301 303 302 300 301 300 298 294 290 286 284 282 280 277 274 270 265 261 258 256 257 257 256 253 251 250 248 245 241 240 237 238 238 237 241 244 244 243 244 243 238 229 227 229 234 239 238 235 242 248 247 179 160 159 162 154 144 155 157 155 155 158 156 157 156 156 145 147 150
299 302 305 307 305 304 303 304 302 300 300 299 298 293 291 286 280 279 278 275 273 272 270 270 267 262 259 257 254 251 249 249 245 239 233 234 227 231 231 235 238 240 245 245 243 240 237 230 228 226 230 243 253 250 247 242 166 164 161 162 155 151 157 159 160 161 163 165 156 153 151 145 153 157
306 307 306 305 303 301 302 302 303 303 301 299 298 296 293 288 283 278 274 272 272 271 270 267 263 262 259 258 255 250 247 245 244 242 228 226 226 226 230 234 238 239 239 240 243 245 238 232 217 217 220 225 232 217 68 273 173 152 151 159 160 150 155 161 159 161 160 154 153 140 140 147 151 150
298 308 308 306 304 305 302 301 304 303 301 299 296 296 293 291 288 285 280 278 279 278 276 272 268 266 263 260 256 251 248 242 240 228 229 221 221 225 230 230 235 237 236 239 239 240 238 233 215 215 219 216 220 226 213 325 298 148 147 151 155 152 153 155 153 160 159 153 144 141 144 146 148 151
313 311 307 305 304 303 303 306 306 306 304 302 300 298 296 294 291 287 285 285 284 280 275 271 268 265 263 262 260 256 251 245 243 238 235 231 223 222 229 234 232 233 233 235 232 233 233 233 230 221 221 221 221 222 218 112 63 112 156 148 152 151 148 144 146 148 155 144 138 139 136 135 143 143
319 315 312 307 306 306 306 307 307 307 306 304 302 298 295 293 293 291 291 289 284 281 275 271 268 264 261 259 258 257 255 246 242 240 236 230 227 227 228 230 230 223 225 228 223 224 222 225 224 216 216 221 219 219 185 137 162 195 164 145 145 152 147 149 150 153 146 138 132 121 120 126 136 139
320 320 316 314 313 313 312 312 310 306 306 303 301 298 297 297 295 293 290 286 282 278 277 272 270 267 265 263 259 259 257 253 246 239 233 227 222 225 226 227 230 224 219 224 220 223 220 219 215 212 210 219 223 225 186 162 176 166 75 98 140 145 162 157 151 145 146 137 119 99 87 90 88 92
327 320 319 317 315 315 314 315 314 312 308 305 302 301 300 299 296 294 290 288 286 284 282 278 273 270 265 259 254 254 252 245 241 238 230 224 218 217 221 227 227 225 220 221 217 218 221 219 212 210 209 224 238 296 139 117 124 103 83 80 139 156 153 159 153 150 136 123 115 113 117 120 123 131
331 326 324 323 318 317 316 315 313 311 307 304 303 302 300 297 295 292 293 290 287 286 284 278 272 267 267 262 253 246 249 244 235 228 229 226 220 214 215 217 226 222 223 220 213 215 217 215 205 196 190 117 115 110 104 115 120 123 109 90 53 73 133 145 154 151 133 136 125 126 131 132 132 139
333 330 326 323 321 318 318 318 316 312 307 305 305 304 302 299 295 290 289 284 279 276 273 274 275 275 267 255 248 245 242 240 234 227 218 220 222 219 212 213 223 223 221 223 215 217 190 148 142 136 131 149 158 158 151 131 130 121 115 93 72 77 80 78 73 86 121 138 138 132 127 123 128 136
335 333 329 326 324 321 318 317 314 311 309 307 305 303 302 300 300 299 297 294 290 287 287 286 283 279 278 271 261 249 242 235 229 225 218 210 212 215 212 207 217 221 218 220 223 161 124 149 150 155 157 166 177 151 126 132 126 124 116 106 99 94 82 81 83 82 81 79 68 74 102 129 148 155
336 335 332 331 325 322 319 317 315 311 309 308 305 304 303 304 301 298 298 298 297 295 293 290 287 284 283 279 271 252 237 233 223 219 212 211 208 216 220 212 201 208 208 210 174 150 162 164 167 160 163 161 135 120 121 120 120 121 119 114 109 105 107 110 99 85 70 63 74 83 82 82 75 75
334 334 331 327 326 321 320 316 314 312 311 311 309 308 308 306 303 302 301 299 297 296 294 292 292 294 296 288 263 244 229 222 223 217 210 210 207 208 212 212 198 186 204 187 157 156 163 163 153 159 144 119 114 121 124 124 120 117 116 115 106 105 107 105 101 92 81 68 53 84 90 93 96 97